Voltar ao catálogo

THORAD AGENA D DEB

AtivoPO
NORAD 42532·DEBRIS·🇺🇸 United States

Lançado Apr 8, 1970 de Vandenberg Space Force Base

Loading…

Próximas Passagens (próximas 24 horas)

TLE

EnvelhecendoSource: Space-Track

Época: Sep 9, 2026, 01:40 UTC

1 42532U 70025SN  26252.06993775  .00001758  00000-0  11592-2 0  9994
2 42532  99.9388 201.1047 0002940  59.2883 300.8570 14.03312805651449

Acompanhe THORAD AGENA D DEB em tempo real com AllMySat

Download on the App Store